| time (UTC) | temp F | wind direction | speed MPH | gust MPH | rain 1hr in | rain 24hr in | rain mn in | humidity % | barometer mb |
| 20260504000758 | 93 | 193 | 5.0 | 14.0 | 0.00 | 0.00 | 0.00 | 16 | 1007.8 |
| 20260504000258 | 94 | 173 | 4.0 | 9.0 | 0.00 | 0.00 | 0.00 | 16 | 1008.0 |
| 20260503234758 | 94 | 178 | 3.0 | 12.0 | 0.00 | 0.00 | 0.00 | 16 | 1008.2 |
| 20260503233757 | 94 | 180 | 8.0 | 15.0 | 0.00 | 0.00 | 0.00 | 16 | 1008.2 |
| 20260503232257 | 95 | 137 | 7.0 | 7.0 | 0.00 | 0.00 | 0.00 | 15 | 1008.3 |
| 20260503231757 | 94 | 238 | 2.0 | 11.0 | 0.00 | 0.00 | 0.00 | 15 | 1008.4 |
| 20260503231257 | 94 | 178 | 3.0 | 15.0 | 0.00 | 0.00 | 0.00 | 15 | 1008.4 |
| 20260503230757 | 94 | 101 | 6.0 | 15.0 | 0.00 | 0.00 | 0.00 | 15 | 1008.6 |
| 20260503230257 | 95 | 240 | 2.0 | 13.0 | 0.00 | 0.00 | 0.00 | 15 | 1008.5 |
| 20260503225756 | 95 | 195 | 7.0 | 13.0 | 0.00 | 0.00 | 0.00 | 15 | 1008.7 |
| 20260503225256 | 95 | 153 | 2.0 | 13.0 | 0.00 | 0.00 | 0.00 | 15 | 1008.7 |
| 20260503224756 | 94 | 240 | 8.0 | 13.0 | 0.00 | 0.00 | 0.00 | 15 | 1008.7 |
| 20260503224256 | 94 | 223 | 1.0 | 9.0 | 0.00 | 0.00 | 0.00 | 15 | 1009.0 |
| 20260503223756 | 95 | 214 | 3.0 | 12.0 | 0.00 | 0.00 | 0.00 | 15 | 1009.1 |
| 20260503223256 | 95 | 184 | 6.0 | 12.0 | 0.00 | 0.00 | 0.00 | 15 | 1009.1 |
| 20260503222756 | 95 | 177 | 12.0 | 12.0 | 0.00 | 0.00 | 0.00 | 15 | 1009.1 |
| 20260503222256 | 94 | 198 | 6.0 | 11.0 | 0.00 | 0.00 | 0.00 | 16 | 1009.3 |
| 20260503221255 | 94 | 245 | 3.0 | 12.0 | 0.00 | 0.00 | 0.00 | 16 | 1009.4 |
| 20260503220255 | 94 | 153 | 4.0 | 13.0 | 0.00 | 0.00 | 0.00 | 16 | 1009.7 |
| 20260503211754 | 95 | 165 | 9.0 | 15.0 | 0.00 | 0.00 | 0.00 | 15 | 1010.5 |
| 20260503211253 | 94 | 193 | 5.0 | 15.0 | 0.00 | 0.00 | 0.00 | 15 | 1010.4 |
| 20260503210753 | 95 | 177 | 6.0 | 13.0 | 0.00 | 0.00 | 0.00 | 15 | 1010.5 |
| 20260503210253 | 94 | 195 | 4.0 | 13.0 | 0.00 | 0.00 | 0.00 | 16 | 1010.6 |
| 20260503205753 | 95 | 236 | 4.0 | 13.0 | 0.00 | 0.00 | 0.00 | 16 | 1010.8 |
| 20260503205253 | 94 | 190 | 3.0 | 12.0 | 0.00 | 0.00 | 0.00 | 16 | 1010.6 |
| 20260503204252 | 95 | 198 | 8.0 | 10.0 | 0.00 | 0.00 | 0.00 | 16 | 1010.8 |
| 20260503203753 | 94 | 158 | 7.0 | 12.0 | 0.00 | 0.00 | 0.00 | 16 | 1010.6 |
| 20260503203252 | 94 | 91 | 7.0 | 12.0 | 0.00 | 0.00 | 0.00 | 19 | 1010.7 |
| 20260503202752 | 94 | 153 | 5.0 | 11.0 | 0.00 | 0.00 | 0.00 | 19 | 1010.7 |
| 20260503202252 | 94 | 309 | 1.0 | 10.0 | 0.00 | 0.00 | 0.00 | 19 | 1010.9 |
| 20260503201752 | 94 | 203 | 3.0 | 10.0 | 0.00 | 0.00 | 0.00 | 19 | 1011.1 |
| 20260503201252 | 93 | 103 | 1.0 | 10.0 | 0.00 | 0.00 | 0.00 | 20 | 1011.1 |
| 20260503200251 | 93 | 146 | 5.0 | 13.0 | 0.00 | 0.00 | 0.00 | 20 | 1011.3 |
| 20260503195751 | 93 | 205 | 6.0 | 13.0 | 0.00 | 0.00 | 0.00 | 20 | 1011.3 |
| 20260503195251 | 93 | 137 | 4.0 | 10.0 | 0.00 | 0.00 | 0.00 | 20 | 1011.3 |
| 20260503194751 | 93 | 221 | 6.0 | 13.0 | 0.00 | 0.00 | 0.00 | 20 | 1011.5 |
| 20260503194251 | 93 | 235 | 5.0 | 13.0 | 0.00 | 0.00 | 0.00 | 20 | 1011.7 |
| 20260503193751 | 93 | 207 | 2.0 | 11.0 | 0.00 | 0.00 | 0.00 | 20 | 1011.7 |
| 20260503192750 | 92 | 126 | 4.0 | 12.0 | 0.00 | 0.00 | 0.00 | 21 | 1012.0 |
| 20260503191750 | 92 | 104 | 3.0 | 9.0 | 0.00 | 0.00 | 0.00 | 20 | 1012.0 |
| 20260503191250 | 91 | 166 | 5.0 | 11.0 | 0.00 | 0.00 | 0.00 | 21 | 1012.0 |
| 20260503190750 | 91 | 115 | 4.0 | 11.0 | 0.00 | 0.00 | 0.00 | 21 | 1012.0 |
| 20260503190250 | 91 | 212 | 6.0 | 8.0 | 0.00 | 0.00 | 0.00 | 21 | 1012.1 |
| 20260503185749 | 90 | 160 | 1.0 | 8.0 | 0.00 | 0.00 | 0.00 | 22 | 1012.3 |
| 20260503185249 | 89 | 124 | 3.0 | 9.0 | 0.00 | 0.00 | 0.00 | 22 | 1012.0 |
| 20260503184249 | 89 | 126 | 3.0 | 12.0 | 0.00 | 0.00 | 0.00 | 21 | 1012.1 |
| 20260503183749 | 89 | 115 | 3.0 | 13.0 | 0.00 | 0.00 | 0.00 | 19 | 1012.1 |
| 20260503183249 | 90 | 120 | 6.0 | 13.0 | 0.00 | 0.00 | 0.00 | 18 | 1012.4 |
| 20260503182748 | 90 | 177 | 3.0 | 10.0 | 0.00 | 0.00 | 0.00 | 19 | 1012.5 |
| 20260503182249 | 90 | 138 | 5.0 | 9.0 | 0.00 | 0.00 | 0.00 | 19 | 1012.5 |
| 20260503181748 | 89 | 185 | 6.0 | 9.0 | 0.00 | 0.00 | 0.00 | 20 | 1012.6 |
| 20260503181248 | 88 | 160 | 5.0 | 9.0 | 0.00 | 0.00 | 0.00 | 22 | 1012.5 |
| 20260503180748 | 87 | 115 | 3.0 | 13.0 | 0.00 | 0.00 | 0.00 | 23 | 1012.5 |
| 20260503180248 | 87 | 156 | 4.0 | 13.0 | 0.00 | 0.00 | 0.00 | 22 | 1012.7 |
| 20260503175317 | 87 | 102 | 4.0 | 10.0 | 0.00 | 0.00 | 0.00 | 23 | 1012.7 |
| 20260503174817 | 87 | 146 | 7.0 | 11.0 | 0.00 | 0.00 | 0.00 | 23 | 1012.7 |
| 20260503174248 | 87 | 85 | 5.0 | 11.0 | 0.00 | 0.00 | 0.00 | 23 | 1012.7 |
| 20260503171816 | 86 | 202 | 3.0 | 13.0 | 0.00 | 0.00 | 0.00 | 23 | 1012.9 |
| 20260503171316 | 86 | 104 | 2.0 | 15.0 | 0.00 | 0.00 | 0.00 | 23 | 1012.9 |
| 20260503170817 | 86 | 133 | 5.0 | 15.0 | 0.00 | 0.00 | 0.00 | 23 | 1013.0 |
| 20260503170246 | 86 | 131 | 6.0 | 13.0 | 0.00 | 0.00 | 0.00 | 25 | 1013.0 |
| 20260503150313 | 80 | 129 | 6.0 | 14.0 | 0.00 | 0.00 | 0.00 | 29 | 1012.4 |
| 20260503140311 | 79 | 108 | 4.0 | 12.0 | 0.00 | 0.00 | 0.00 | 30 | 1012.5 |
| 20260503131309 | 78 | 116 | 8.0 | 12.0 | 0.00 | 0.00 | 0.00 | 30 | 1012.4 |
| 20260503130810 | 78 | 101 | 5.0 | 12.0 | 0.00 | 0.00 | 0.00 | 30 | 1012.2 |
| 20260503130309 | 78 | 96 | 5.0 | 12.0 | 0.00 | 0.00 | 0.00 | 30 | 1012.0 |
| 20260503110806 | 78 | 130 | 4.0 | 11.0 | 0.00 | 0.00 | 0.00 | 30 | 1012.1 |
| 20260503110305 | 78 | 112 | 7.0 | 9.0 | 0.00 | 0.00 | 0.00 | 30 | 1012.1 |
| 20260503090303 | 80 | 108 | 4.0 | 16.0 | 0.00 | 0.00 | 0.00 | 27 | 1012.0 |
| 20260503081301 | 80 | 109 | 7.0 | 13.0 | 0.00 | 0.00 | 0.00 | 25 | 1012.5 |
| 20260503080800 | 80 | 134 | 4.0 | 13.0 | 0.00 | 0.00 | 0.00 | 25 | 1012.6 |
| 20260503080300 | 80 | 119 | 6.0 | 12.0 | 0.00 | 0.00 | 0.00 | 25 | 1012.7 |
| 20260503072800 | 79 | 120 | 6.0 | 8.0 | 0.00 | 0.00 | 0.00 | 24 | 1012.7 |
| 20260503071759 | 79 | 110 | 7.0 | 7.0 | 0.00 | 0.00 | 0.00 | 24 | 1012.9 |
| 20260503071259 | 78 | 113 | 5.0 | 6.0 | 0.00 | 0.00 | 0.00 | 24 | 1012.9 |
| 20260503070759 | 79 | 129 | 1.0 | 7.0 | 0.00 | 0.00 | 0.00 | 25 | 1012.8 |
| 20260503070259 | 79 | 124 | 2.0 | 7.0 | 0.00 | 0.00 | 0.00 | 24 | 1012.7 |
| 20260503060257 | 78 | 110 | 2.0 | 4.0 | 0.00 | 0.00 | 0.00 | 24 | 1012.3 |
| 20260503054257 | 78 | 117 | 3.0 | 5.0 | 0.00 | 0.00 | 0.00 | 24 | 1011.9 |
| 20260503053757 | 78 | 72 | 2.0 | 5.0 | 0.00 | 0.00 | 0.00 | 24 | 1012.1 |
| 20260503053256 | 78 | 108 | 4.0 | 5.0 | 0.00 | 0.00 | 0.00 | 24 | 1012.1 |
| 20260503052756 | 78 | 90 | 2.0 | 5.0 | 0.00 | 0.00 | 0.00 | 24 | 1012.1 |
| 20260503052256 | 78 | 112 | 2.0 | 5.0 | 0.00 | 0.00 | 0.00 | 24 | 1012.1 |
| 20260503051256 | 78 | 117 | 1.0 | 3.0 | 0.00 | 0.00 | 0.00 | 24 | 1012.2 |
| 20260503050755 | 78 | 113 | 1.0 | 2.0 | 0.00 | 0.00 | 0.00 | 24 | 1012.1 |
| 20260503045755 | 78 | 117 | 2.0 | 2.0 | 0.00 | 0.00 | 0.00 | 24 | 1011.9 |
| 20260503045255 | 78 | 124 | 0.0 | 2.0 | 0.00 | 0.00 | 0.00 | 23 | 1011.7 |
| 20260503044755 | 78 | 107 | 2.0 | 2.0 | 0.00 | 0.00 | 0.00 | 23 | 1011.7 |
| 20260503043754 | 76 | 103 | 0.0 | 1.0 | 0.00 | 0.00 | 0.00 | 21 | 1011.5 |
| 20260503042754 | 77 | 93 | 0.0 | 1.0 | 0.00 | 0.00 | 0.00 | 19 | 1011.6 |
| 20260503041754 | 77 | 91 | 0.0 | 2.0 | 0.00 | 0.00 | 0.00 | 19 | 1011.4 |
| 20260503041254 | 77 | 89 | 0.0 | 1.0 | 0.00 | 0.00 | 0.00 | 19 | 1011.3 |
| 20260503040754 | 77 | 101 | 0.0 | 2.0 | 0.00 | 0.00 | 0.00 | 19 | 1011.4 |
| 20260503035753 | 77 | 65 | 1.0 | 2.0 | 0.00 | 0.00 | 0.00 | 19 | 1011.2 |
| 20260503035253 | 77 | 65 | 0.0 | 1.0 | 0.00 | 0.00 | 0.00 | 19 | 1010.8 |
| 20260503034753 | 77 | 65 | 1.0 | 1.0 | 0.00 | 0.00 | 0.00 | 18 | 1010.7 |
| 20260503034253 | 77 | 65 | 0.0 | 1.0 | 0.00 | 0.00 | 0.00 | 18 | 1010.7 |
| 20260503033753 | 78 | 65 | 0.0 | 1.0 | 0.00 | 0.00 | 0.00 | 18 | 1010.9 |
| 20260503033253 | 78 | 65 | 0.0 | 1.0 | 0.00 | 0.00 | 0.00 | 18 | 1010.9 |
| 20260503032753 | 78 | 66 | 0.0 | 1.0 | 0.00 | 0.00 | 0.00 | 18 | 1010.9 |
| 20260503032253 | 78 | 42 | 0.0 | 1.0 | 0.00 | 0.00 | 0.00 | 18 | 1010.8 |
| 20260503031252 | 79 | 42 | 0.0 | 1.0 | 0.00 | 0.00 | 0.00 | 17 | 1010.8 |
| 20260503030752 | 79 | 37 | 0.0 | 1.0 | 0.00 | 0.00 | 0.00 | 17 | 1010.9 |
| 20260503030252 | 79 | 37 | 0.0 | 1.0 | 0.00 | 0.00 | 0.00 | 18 | 1010.7 |
| 20260503025751 | 79 | 342 | 0.0 | 1.0 | 0.00 | 0.00 | 0.00 | 18 | 1010.7 |
| 20260503025252 | 80 | 283 | 0.0 | 1.0 | 0.00 | 0.00 | 0.00 | 18 | 1010.5 |
| 20260503024751 | 80 | 280 | 0.0 | 0.0 | 0.00 | 0.00 | 0.00 | 19 | 1010.6 |
| 20260503024251 | 80 | 280 | 0.0 | 0.0 | 0.00 | 0.00 | 0.00 | 18 | 1010.7 |
| 20260503023751 | 81 | 280 | 0.0 | 0.0 | 0.00 | 0.00 | 0.00 | 18 | 1010.4 |
| 20260503023251 | 81 | 280 | 0.0 | 0.0 | 0.00 | 0.00 | 0.00 | 18 | 1010.4 |
| 20260503022751 | 82 | 280 | 0.0 | 0.0 | 0.00 | 0.00 | 0.00 | 18 | 1010.5 |
| 20260503022251 | 83 | 280 | 0.0 | 0.0 | 0.00 | 0.00 | 0.00 | 17 | 1010.6 |
| 20260503021750 | 84 | 280 | 0.0 | 0.0 | 0.00 | 0.00 | 0.00 | 16 | 1010.6 |
| 20260503020750 | 86 | 280 | 0.0 | 0.0 | 0.00 | 0.00 | 0.00 | 15 | 1010.7 |
| 20260503020320 | 86 | 280 | 0.0 | 2.0 | 0.00 | 0.00 | 0.00 | 15 | 1010.7 |
| 20260503015750 | 87 | 280 | 0.0 | 4.0 | 0.00 | 0.00 | 0.00 | 15 | 1010.7 |
| 20260503015250 | 87 | 274 | 1.0 | 4.0 | 0.00 | 0.00 | 0.00 | 15 | 1010.6 |
| 20260503014749 | 87 | 107 | 0.0 | 1.0 | 0.00 | 0.00 | 0.00 | 15 | 1010.6 |
| 20260503013749 | 88 | 138 | 0.0 | 2.0 | 0.00 | 0.00 | 0.00 | 15 | 1010.7 |
| 20260503013249 | 88 | 91 | 0.0 | 3.0 | 0.00 | 0.00 | 0.00 | 14 | 1010.7 |
| 20260503012749 | 89 | 163 | 0.0 | 3.0 | 0.00 | 0.00 | 0.00 | 14 | 1010.7 |
| 20260503011749 | 89 | 222 | 0.0 | 3.0 | 0.00 | 0.00 | 0.00 | 14 | 1010.9 |
| 20260503011248 | 90 | 245 | 0.0 | 3.0 | 0.00 | 0.00 | 0.00 | 14 | 1011.0 |
| 20260503010748 | 90 | 243 | 0.0 | 3.0 | 0.00 | 0.00 | 0.00 | 14 | 1010.9 |
| 20260503010248 | 90 | 145 | 1.0 | 3.0 | 0.00 | 0.00 | 0.00 | 14 | 1011.0 |
| 20260503005818 | 91 | 213 | 0.0 | 4.0 | 0.00 | 0.00 | 0.00 | 14 | 1011.0 |
| 20260503004748 | 91 | 184 | 4.0 | 4.0 | 0.00 | 0.00 | 0.00 | 13 | 1010.9 |
| 20260503004248 | 91 | 238 | 0.0 | 3.0 | 0.00 | 0.00 | 0.00 | 14 | 1011.0 |
| 20260503003747 | 91 | 283 | 0.0 | 3.0 | 0.00 | 0.00 | 0.00 | 13 | 1011.0 |
| 20260503003248 | 92 | 276 | 0.0 | 3.0 | 0.00 | 0.00 | 0.00 | 13 | 1011.0 |
| 20260503002818 | 92 | 221 | 2.0 | 3.0 | 0.00 | 0.00 | 0.00 | 13 | 1010.9 |
| 20260503002317 | 91 | 294 | 1.0 | 3.0 | 0.00 | 0.00 | 0.00 | 13 | 1010.9 |
| 20260503001247 | 91 | 291 | 1.0 | 6.0 | 0.00 | 0.00 | 0.00 | 13 | 1011.1 |